Time,TemperatureF,DewpointF,PressureIn,WindDirection,WindDirectionDegrees,WindSpeedMPH,WindSpeedGustMPH,Humidity,HourlyPrecipIn,Conditions,Clouds,dailyrainin,SoftwareType,DateUTC
2013-07-07 00:02:00,72.0,65.5,29.83,West,261,0.0,4.0,80,0.00,,---,0.00,VWS V14.01,2013-07-07 05:02:00,
2013-07-07 00:12:00,68.8,64.4,29.84,West,263,0.0,3.0,86,0.00,,---,0.00,VWS V14.01,2013-07-07 05:12:00,
2013-07-07 00:17:00,67.7,63.7,29.84,West,263,0.0,3.0,87,0.00,,---,0.00,VWS V14.01,2013-07-07 05:17:00,
2013-07-07 00:22:00,67.0,63.7,29.85,West,263,0.0,2.0,89,0.00,,---,0.00,VWS V14.01,2013-07-07 05:22:00,
2013-07-07 00:32:00,66.1,63.4,29.85,West,265,0.0,5.0,91,0.00,,---,0.00,VWS V14.01,2013-07-07 05:32:00,
2013-07-07 00:37:00,66.0,63.3,29.85,West,265,1.0,1.0,91,0.00,,---,0.00,VWS V14.01,2013-07-07 05:37:00,
2013-07-07 00:42:00,65.8,63.4,29.84,West,265,0.0,2.0,92,0.05,,---,0.05,VWS V14.01,2013-07-07 05:42:00,
2013-07-07 00:47:00,65.6,63.5,29.84,West,265,0.0,4.0,93,0.13,,---,0.13,VWS V14.01,2013-07-07 05:47:00,
2013-07-07 00:52:00,65.4,63.3,29.84,East,87,2.0,5.0,93,0.16,,---,0.16,VWS V14.01,2013-07-07 05:52:00,
2013-07-07 01:02:00,65.1,63.3,29.83,SE,133,2.0,4.0,94,0.18,,---,0.18,VWS V14.01,2013-07-07 06:02:00,
2013-07-07 01:07:00,65.1,63.3,29.83,ESE,114,0.0,5.0,94,0.20,,---,0.20,VWS V14.01,2013-07-07 06:07:00,
2013-07-07 01:12:00,65.3,63.8,29.83,ESE,114,0.0,0.0,95,0.21,,---,0.21,VWS V14.01,2013-07-07 06:12:00,
2013-07-07 01:22:00,65.3,63.8,29.82,ESE,105,0.0,4.0,95,0.22,,---,0.22,VWS V14.01,2013-07-07 06:22:00,
2013-07-07 01:27:00,65.3,63.8,29.83,ESE,105,0.0,0.0,95,0.23,,---,0.23,VWS V14.01,2013-07-07 06:27:00,
2013-07-07 01:37:00,65.5,64.0,29.85,West,263,3.0,4.0,95,0.26,,---,0.26,VWS V14.01,2013-07-07 06:37:00,
2013-07-07 01:42:00,65.5,64.0,29.85,West,263,0.0,4.0,95,0.29,,---,0.29,VWS V14.01,2013-07-07 06:42:00,
2013-07-07 01:47:00,65.5,64.0,29.84,West,263,0.0,2.0,95,0.29,,---,0.34,VWS V14.01,2013-07-07 06:47:00,
2013-07-07 01:52:00,65.5,64.3,29.84,West,263,0.0,2.0,96,0.27,,---,0.40,VWS V14.01,2013-07-07 06:52:00,
2013-07-07 01:57:00,65.5,64.3,29.84,West,263,0.0,0.0,96,0.27,,---,0.43,VWS V14.01,2013-07-07 06:57:00,
2013-07-07 02:02:00,65.8,64.6,29.84,West,263,0.0,0.0,96,0.28,,---,0.45,VWS V14.01,2013-07-07 07:02:00,
2013-07-07 02:07:00,66.1,64.9,29.83,SE,145,2.0,3.0,96,0.29,,---,0.47,VWS V14.01,2013-07-07 07:07:00,
2013-07-07 02:17:00,67.1,65.9,29.83,South,186,0.0,7.0,96,0.33,,---,0.54,VWS V14.01,2013-07-07 07:17:00,
2013-07-07 02:22:00,67.6,66.4,29.83,SSW,210,3.0,9.0,96,0.35,,---,0.56,VWS V14.01,2013-07-07 07:22:00,
2013-07-07 02:32:00,68.1,66.9,29.82,South,179,4.0,11.0,96,0.56,,---,0.79,VWS V14.01,2013-07-07 07:32:00,
2013-07-07 02:37:00,68.2,67.0,29.81,South,182,0.0,7.0,96,0.62,,---,0.86,VWS V14.01,2013-07-07 07:37:00,
2013-07-07 02:47:00,68.6,67.4,29.81,SSW,198,7.0,11.0,96,0.61,,---,0.90,VWS V14.01,2013-07-07 07:47:00,
2013-07-07 02:52:00,68.8,67.6,29.81,South,188,5.0,13.0,96,0.58,,---,0.92,VWS V14.01,2013-07-07 07:52:00,
2013-07-07 02:57:00,68.9,67.7,29.81,SSW,193,9.0,12.0,96,0.53,,---,0.93,VWS V14.01,2013-07-07 07:57:00,
2013-07-07 03:02:00,69.1,67.6,29.80,South,169,5.0,13.0,95,0.51,,---,0.94,VWS V14.01,2013-07-07 08:02:00,
2013-07-07 03:07:00,69.3,67.8,29.81,South,186,0.0,11.0,95,0.50,,---,0.95,VWS V14.01,2013-07-07 08:07:00,
2013-07-07 03:12:00,69.3,67.8,29.80,SSE,155,6.0,10.0,95,0.49,,---,0.96,VWS V14.01,2013-07-07 08:12:00,
2013-07-07 03:17:00,69.4,67.6,29.79,SSW,206,0.0,7.0,94,0.48,,---,0.99,VWS V14.01,2013-07-07 08:17:00,
2013-07-07 03:22:00,69.5,67.7,29.78,SSE,164,5.0,9.0,94,0.46,,---,1.00,VWS V14.01,2013-07-07 08:22:00,
2013-07-07 03:27:00,69.7,67.9,29.78,SSW,202,0.0,12.0,94,0.45,,---,1.01,VWS V14.01,2013-07-07 08:27:00,
2013-07-07 03:32:00,69.7,67.6,29.77,SSW,200,3.0,10.0,93,0.32,,---,1.01,VWS V14.01,2013-07-07 08:32:00,
2013-07-07 03:42:00,69.6,67.5,29.77,SE,144,4.0,11.0,93,0.15,,---,1.01,VWS V14.01,2013-07-07 08:42:00,
2013-07-07 03:47:00,69.6,67.5,29.77,SSE,151,5.0,9.0,93,0.14,,---,1.01,VWS V14.01,2013-07-07 08:47:00,
2013-07-07 03:52:00,69.5,67.4,29.77,SSW,196,4.0,11.0,93,0.11,,---,1.01,VWS V14.01,2013-07-07 08:52:00,
2013-07-07 03:57:00,69.5,67.7,29.77,South,186,6.0,13.0,94,0.09,,---,1.01,VWS V14.01,2013-07-07 08:57:00,
2013-07-07 04:02:00,69.5,67.7,29.77,SE,130,12.0,12.0,94,0.08,,---,1.01,VWS V14.01,2013-07-07 09:02:00,
2013-07-07 04:07:00,69.5,67.4,29.77,South,175,6.0,12.0,93,0.07,,---,1.01,VWS V14.01,2013-07-07 09:07:00,
2013-07-07 04:12:00,69.5,67.7,29.77,SSE,157,6.0,10.0,94,0.06,,---,1.01,VWS V14.01,2013-07-07 09:12:00,
2013-07-07 04:22:00,69.5,67.4,29.78,South,176,2.0,12.0,93,0.02,,---,1.01,VWS V14.01,2013-07-07 09:22:00,
2013-07-07 04:27:00,69.5,67.4,29.78,SE,134,5.0,13.0,93,0.01,,---,1.01,VWS V14.01,2013-07-07 09:27:00,
2013-07-07 04:32:00,69.5,67.4,29.78,South,183,11.0,11.0,93,0.00,,---,1.01,VWS V14.01,2013-07-07 09:32:00,
2013-07-07 04:42:00,69.5,67.4,29.78,SE,146,10.0,12.0,93,0.00,,---,1.01,VWS V14.01,2013-07-07 09:42:00,
2013-07-07 04:47:00,69.5,67.4,29.78,SE,146,8.0,14.0,93,0.00,,---,1.01,VWS V14.01,2013-07-07 09:47:00,
2013-07-07 04:52:00,69.5,67.4,29.78,SSW,192,1.0,11.0,93,0.00,,---,1.01,VWS V14.01,2013-07-07 09:52:00,
2013-07-07 04:57:00,69.5,67.4,29.78,SE,141,5.0,9.0,93,0.00,,---,1.01,VWS V14.01,2013-07-07 09:57:00,
2013-07-07 05:02:00,69.5,67.4,29.79,WNW,292,0.0,5.0,93,0.00,,---,1.01,VWS V14.01,2013-07-07 10:02:00,
2013-07-07 05:07:00,69.4,67.3,29.81,WNW,292,0.0,3.0,93,0.00,,---,1.01,VWS V14.01,2013-07-07 10:07:00,
2013-07-07 05:12:00,69.2,67.4,29.80,East,84,0.0,3.0,94,0.00,,---,1.01,VWS V14.01,2013-07-07 10:12:00,
2013-07-07 05:17:00,69.0,67.2,29.80,East,86,0.0,1.0,94,0.00,,---,1.01,VWS V14.01,2013-07-07 10:17:00,
2013-07-07 05:22:00,69.0,67.2,29.81,East,86,0.0,0.0,94,0.00,,---,1.01,VWS V14.01,2013-07-07 10:22:00,
2013-07-07 05:27:00,68.8,67.3,29.81,East,81,0.0,6.0,95,0.00,,---,1.01,VWS V14.01,2013-07-07 10:27:00,
2013-07-07 05:32:00,68.6,67.1,29.82,East,80,0.0,0.0,95,0.00,,---,1.01,VWS V14.01,2013-07-07 10:32:00,
2013-07-07 05:42:00,68.5,67.0,29.82,East,81,0.0,0.0,95,0.00,,---,1.01,VWS V14.01,2013-07-07 10:42:00,
2013-07-07 05:47:00,68.3,66.8,29.82,NE,34,0.0,3.0,95,0.00,,---,1.01,VWS V14.01,2013-07-07 10:47:00,
2013-07-07 05:52:00,68.2,66.7,29.82,NE,36,0.0,2.0,95,0.00,,---,1.01,VWS V14.01,2013-07-07 10:52:00,
2013-07-07 05:57:00,68.1,66.6,29.82,NE,52,0.0,2.0,95,0.00,,---,1.01,VWS V14.01,2013-07-07 10:57:00,
2013-07-07 06:02:00,68.0,66.5,29.82,NE,53,0.0,4.0,95,0.00,,---,1.01,VWS V14.01,2013-07-07 11:02:00,
2013-07-07 06:07:00,67.9,66.4,29.82,ENE,71,0.0,4.0,95,0.00,,---,1.01,VWS V14.01,2013-07-07 11:07:00,
2013-07-07 06:12:00,67.7,66.5,29.82,ENE,71,0.0,4.0,96,0.00,,---,1.01,VWS V14.01,2013-07-07 11:12:00,
2013-07-07 06:17:00,67.6,66.4,29.82,East,88,4.0,4.0,96,0.00,,---,1.01,VWS V14.01,2013-07-07 11:17:00,
2013-07-07 06:22:00,67.5,66.3,29.82,East,98,1.0,7.0,96,0.00,,---,1.01,VWS V14.01,2013-07-07 11:22:00,
2013-07-07 06:27:00,67.5,66.3,29.82,ENE,71,2.0,7.0,96,0.00,,---,1.01,VWS V14.01,2013-07-07 11:27:00,
2013-07-07 06:32:00,67.5,66.3,29.82,ENE,75,3.0,5.0,96,0.00,,---,1.01,VWS V14.01,2013-07-07 11:32:00,
2013-07-07 06:37:00,67.6,66.4,29.81,ENE,74,0.0,6.0,96,0.00,,---,1.01,VWS V14.01,2013-07-07 11:37:00,
2013-07-07 06:47:00,67.9,66.7,29.82,ESE,109,0.0,11.0,96,0.01,,---,1.02,VWS V14.01,2013-07-07 11:47:00,
2013-07-07 06:52:00,68.0,66.8,29.82,East,84,0.0,7.0,96,0.01,,---,1.02,VWS V14.01,2013-07-07 11:52:00,
2013-07-07 06:57:00,68.0,66.8,29.82,ENE,66,2.0,7.0,96,0.01,,---,1.02,VWS V14.01,2013-07-07 11:57:00,
2013-07-07 07:02:00,68.1,66.9,29.82,ESE,118,0.0,6.0,96,0.01,,---,1.02,VWS V14.01,2013-07-07 12:02:00,
2013-07-07 07:07:00,68.3,67.1,29.82,ESE,111,1.0,6.0,96,0.01,,---,1.02,VWS V14.01,2013-07-07 12:07:00,
2013-07-07 07:12:00,68.3,67.1,29.81,East,94,3.0,6.0,96,0.01,,---,1.02,VWS V14.01,2013-07-07 12:12:00,
2013-07-07 07:17:00,68.3,67.1,29.81,East,92,0.0,8.0,96,0.01,,---,1.02,VWS V14.01,2013-07-07 12:17:00,
2013-07-07 07:22:00,68.3,66.8,29.81,SSE,152,2.0,8.0,95,0.01,,---,1.02,VWS V14.01,2013-07-07 12:22:00,
2013-07-07 07:27:00,68.4,66.9,29.81,East,92,0.0,7.0,95,0.01,,---,1.02,VWS V14.01,2013-07-07 12:27:00,
2013-07-07 07:37:00,68.5,66.7,29.81,SSE,155,3.0,7.0,94,0.01,,---,1.02,VWS V14.01,2013-07-07 12:37:00,
2013-07-07 07:42:00,68.6,66.8,29.81,SE,140,3.0,10.0,94,0.01,,---,1.02,VWS V14.01,2013-07-07 12:42:00,
2013-07-07 07:47:00,68.9,67.1,29.81,SE,142,6.0,13.0,94,0.01,,---,1.02,VWS V14.01,2013-07-07 12:47:00,
2013-07-07 07:52:00,69.3,67.2,29.81,SE,141,4.0,12.0,93,0.00,,---,1.02,VWS V14.01,2013-07-07 12:52:00,
2013-07-07 07:57:00,69.5,67.1,29.81,SSE,167,4.0,12.0,92,0.00,,---,1.02,VWS V14.01,2013-07-07 12:57:00,
2013-07-07 08:07:00,69.7,66.6,29.82,SSE,152,3.0,14.0,90,0.00,,---,1.02,VWS V14.01,2013-07-07 13:07:00,
2013-07-07 08:17:00,69.9,66.8,29.83,SSE,153,0.0,11.0,90,0.00,,---,1.02,VWS V14.01,2013-07-07 13:17:00,
2013-07-07 08:22:00,69.9,66.8,29.82,South,169,5.0,14.0,90,0.00,,---,1.02,VWS V14.01,2013-07-07 13:22:00,
2013-07-07 08:32:00,70.1,66.7,29.82,South,190,12.0,12.0,89,0.00,,---,1.02,VWS V14.01,2013-07-07 13:32:00,
2013-07-07 08:42:00,70.5,66.8,29.83,SSW,205,7.0,13.0,88,0.00,,---,1.02,VWS V14.01,2013-07-07 13:42:00,
2013-07-07 08:52:00,69.7,66.0,29.83,SSE,167,1.0,11.0,88,0.00,,---,1.02,VWS V14.01,2013-07-07 13:52:00,
2013-07-07 09:02:00,69.5,65.8,29.83,SSE,165,1.0,11.0,88,0.00,,---,1.02,VWS V14.01,2013-07-07 14:02:00,
2013-07-07 09:07:00,69.4,65.4,29.83,SE,143,11.0,15.0,87,0.00,,---,1.02,VWS V14.01,2013-07-07 14:07:00,
2013-07-07 09:12:00,69.4,65.4,29.83,South,179,4.0,13.0,87,0.00,,---,1.02,VWS V14.01,2013-07-07 14:12:00,
2013-07-07 09:17:00,69.7,65.3,29.82,SSW,211,6.0,16.0,86,0.00,,---,1.02,VWS V14.01,2013-07-07 14:17:00,
2013-07-07 09:22:00,70.4,66.0,29.82,South,173,4.0,14.0,86,0.00,,---,1.02,VWS V14.01,2013-07-07 14:22:00,
2013-07-07 09:32:00,71.5,66.4,29.82,SSW,206,9.0,15.0,84,0.00,,---,1.02,VWS V14.01,2013-07-07 14:32:00,
2013-07-07 09:37:00,71.8,66.4,29.81,South,184,5.0,17.0,83,0.00,,---,1.02,VWS V14.01,2013-07-07 14:37:00,
2013-07-07 09:42:00,72.5,67.4,29.82,SSE,165,6.0,11.0,84,0.00,,---,1.02,VWS V14.01,2013-07-07 14:42:00,
2013-07-07 09:52:00,73.2,66.7,29.82,South,176,14.0,18.0,80,0.00,,---,1.02,VWS V14.01,2013-07-07 14:52:00,
2013-07-07 09:57:00,73.4,67.2,29.82,SE,144,9.0,18.0,81,0.00,,---,1.02,VWS V14.01,2013-07-07 14:57:00,
2013-07-07 10:02:00,73.5,66.6,29.82,SSE,167,4.0,15.0,79,0.00,,---,1.02,VWS V14.01,2013-07-07 15:02:00,
2013-07-07 10:12:00,74.0,67.4,29.81,SE,140,1.0,16.0,80,0.00,,---,1.02,VWS V14.01,2013-07-07 15:12:00,
2013-07-07 10:17:00,74.1,66.8,29.81,South,183,12.0,20.0,78,0.00,,---,1.02,VWS V14.01,2013-07-07 15:17:00,
2013-07-07 10:22:00,74.5,67.2,29.81,South,178,2.0,13.0,78,0.00,,---,1.02,VWS V14.01,2013-07-07 15:22:00,
2013-07-07 10:32:00,75.3,67.6,29.81,SSE,167,9.0,13.0,77,0.00,,---,1.02,VWS V14.01,2013-07-07 15:32:00,
2013-07-07 10:37:00,75.4,67.7,29.81,SE,131,5.0,13.0,77,0.00,,---,1.02,VWS V14.01,2013-07-07 15:37:00,
2013-07-07 10:42:00,75.4,67.7,29.82,SW,222,6.0,15.0,77,0.00,,---,1.02,VWS V14.01,2013-07-07 15:42:00,
2013-07-07 10:52:00,76.0,68.7,29.81,SSW,194,7.0,13.0,78,0.00,,---,1.02,VWS V14.01,2013-07-07 15:52:00,
2013-07-07 10:57:00,76.4,68.7,29.81,SSW,209,1.0,14.0,77,0.00,,---,1.02,VWS V14.01,2013-07-07 15:57:00,
2013-07-07 11:02:00,76.9,69.2,29.81,SSW,200,8.0,12.0,77,0.00,,---,1.02,VWS V14.01,2013-07-07 16:02:00,
2013-07-07 11:07:00,76.7,68.2,29.81,SSW,207,12.0,16.0,75,0.00,,---,1.02,VWS V14.01,2013-07-07 16:07:00,
2013-07-07 11:12:00,76.9,69.2,29.81,South,190,0.0,18.0,77,0.00,,---,1.02,VWS V14.01,2013-07-07 16:12:00,
2013-07-07 11:17:00,77.3,69.5,29.81,SSW,192,6.0,11.0,77,0.00,,---,1.02,VWS V14.01,2013-07-07 16:17:00,
2013-07-07 11:22:00,77.0,68.9,29.81,SE,139,5.0,14.0,76,0.00,,---,1.02,VWS V14.01,2013-07-07 16:22:00,
2013-07-07 11:27:00,76.9,68.8,29.81,SSW,192,9.0,15.0,76,0.00,,---,1.02,VWS V14.01,2013-07-07 16:27:00,
2013-07-07 11:32:00,77.2,68.7,29.81,SSW,198,4.0,13.0,75,0.00,,---,1.02,VWS V14.01,2013-07-07 16:32:00,
2013-07-07 11:37:00,77.8,70.0,29.80,SSW,211,7.0,12.0,77,0.00,,---,1.02,VWS V14.01,2013-07-07 16:37:00,
2013-07-07 11:42:00,78.2,70.0,29.80,SSW,195,9.0,15.0,76,0.00,,---,1.02,VWS V14.01,2013-07-07 16:42:00,
2013-07-07 11:47:00,78.2,69.2,29.81,SSE,159,10.0,15.0,74,0.00,,---,1.02,VWS V14.01,2013-07-07 16:47:00,
2013-07-07 11:52:00,78.2,69.6,29.80,South,178,2.0,13.0,75,0.00,,---,1.02,VWS V14.01,2013-07-07 16:52:00,
2013-07-07 11:57:00,78.9,71.1,29.80,SSW,201,11.0,11.0,77,0.00,,---,1.02,VWS V14.01,2013-07-07 16:57:00,
2013-07-07 12:02:00,78.7,69.7,29.80,WSW,237,5.0,13.0,74,0.00,,---,1.02,VWS V14.01,2013-07-07 17:02:00,
2013-07-07 12:07:00,78.7,70.5,29.80,SSW,203,2.0,14.0,76,0.00,,---,1.02,VWS V14.01,2013-07-07 17:07:00,
2013-07-07 12:12:00,79.2,70.6,29.81,SE,138,10.0,11.0,75,0.00,,---,1.02,VWS V14.01,2013-07-07 17:12:00,
2013-07-07 12:17:00,79.5,71.3,29.81,SSW,199,10.0,12.0,76,0.00,,---,1.02,VWS V14.01,2013-07-07 17:17:00,
2013-07-07 12:22:00,79.8,70.8,29.80,SSW,211,4.0,11.0,74,0.00,,---,1.02,VWS V14.01,2013-07-07 17:22:00,
2013-07-07 12:27:00,80.0,71.0,29.80,South,177,5.0,10.0,74,0.00,,---,1.02,VWS V14.01,2013-07-07 17:27:00,
2013-07-07 12:37:00,79.7,70.3,29.81,SE,146,7.0,10.0,73,0.00,,---,1.02,VWS V14.01,2013-07-07 17:37:00,
2013-07-07 12:42:00,79.6,70.6,29.81,SSW,194,0.0,10.0,74,0.00,,---,1.02,VWS V14.01,2013-07-07 17:42:00,
2013-07-07 12:47:00,80.0,72.2,29.81,SW,229,2.0,5.0,77,0.00,,---,1.02,VWS V14.01,2013-07-07 17:47:00,
2013-07-07 12:52:00,80.0,70.2,29.81,SSW,200,3.0,7.0,72,0.00,,---,1.02,VWS V14.01,2013-07-07 17:52:00,
2013-07-07 12:57:00,80.2,70.8,29.81,SSE,167,0.0,4.0,73,0.00,,---,1.02,VWS V14.01,2013-07-07 17:57:00,
2013-07-07 13:02:00,80.1,70.7,29.81,WSW,249,7.0,10.0,73,0.00,,---,1.02,VWS V14.01,2013-07-07 18:02:00,
2013-07-07 13:12:00,79.9,70.1,29.81,SSW,196,0.0,7.0,72,0.00,,---,1.02,VWS V14.01,2013-07-07 18:12:00,
2013-07-07 13:17:00,80.2,71.9,29.81,WSW,250,1.0,4.0,76,0.00,,---,1.02,VWS V14.01,2013-07-07 18:17:00,
2013-07-07 13:22:00,80.2,70.4,29.81,SSW,192,0.0,7.0,72,0.00,,---,1.02,VWS V14.01,2013-07-07 18:22:00,
2013-07-07 13:27:00,80.4,71.0,29.81,SSW,192,0.0,1.0,73,0.00,,---,1.02,VWS V14.01,2013-07-07 18:27:00,
2013-07-07 13:32:00,80.7,70.4,29.81,West,268,3.0,6.0,71,0.00,,---,1.02,VWS V14.01,2013-07-07 18:32:00,
2013-07-07 13:37:00,80.7,70.8,29.82,WSW,245,0.0,5.0,72,0.00,,---,1.02,VWS V14.01,2013-07-07 18:37:00,
2013-07-07 13:42:00,80.6,70.8,29.82,SSW,192,0.0,4.0,72,0.00,,---,1.02,VWS V14.01,2013-07-07 18:42:00,
2013-07-07 13:47:00,80.5,70.7,29.82,SSW,200,0.0,4.0,72,0.00,,---,1.02,VWS V14.01,2013-07-07 18:47:00,
2013-07-07 13:57:00,80.3,71.7,29.82,East,86,0.0,5.0,75,0.00,,---,1.02,VWS V14.01,2013-07-07 18:57:00,
2013-07-07 14:02:00,79.6,72.1,29.82,East,86,0.0,1.0,78,0.00,,---,1.02,VWS V14.01,2013-07-07 19:02:00,
2013-07-07 14:07:00,78.7,71.3,29.82,East,86,0.0,2.0,78,0.00,,---,1.02,VWS V14.01,2013-07-07 19:07:00,
2013-07-07 14:12:00,78.6,71.2,29.83,East,80,0.0,2.0,78,0.00,,---,1.02,VWS V14.01,2013-07-07 19:12:00,
2013-07-07 14:22:00,77.1,69.7,29.83,ENE,61,0.0,0.0,78,0.00,,---,1.02,VWS V14.01,2013-07-07 19:22:00,
2013-07-07 14:27:00,77.1,70.5,29.83,ENE,61,0.0,0.0,80,0.00,,---,1.02,VWS V14.01,2013-07-07 19:27:00,
2013-07-07 14:32:00,77.1,70.5,29.83,NNE,15,3.0,3.0,80,0.00,,---,1.02,VWS V14.01,2013-07-07 19:32:00,
2013-07-07 14:37:00,77.3,70.7,29.83,NNE,17,0.0,4.0,80,0.00,,---,1.02,VWS V14.01,2013-07-07 19:37:00,
2013-07-07 14:47:00,77.4,70.8,29.82,West,281,0.0,2.0,80,0.00,,---,1.02,VWS V14.01,2013-07-07 19:47:00,
2013-07-07 14:57:00,78.4,71.0,29.83,ENE,63,0.0,2.0,78,0.00,,---,1.02,VWS V14.01,2013-07-07 19:57:00,
2013-07-07 15:02:00,78.6,71.2,29.83,ESE,123,0.0,4.0,78,0.00,,---,1.02,VWS V14.01,2013-07-07 20:02:00,
2013-07-07 15:07:00,78.4,70.6,29.83,ESE,113,0.0,3.0,77,0.00,,---,1.02,VWS V14.01,2013-07-07 20:07:00,
2013-07-07 15:12:00,78.0,70.6,29.83,ESE,105,0.0,3.0,78,0.00,,---,1.02,VWS V14.01,2013-07-07 20:12:00,
2013-07-07 15:17:00,78.0,70.6,29.83,North,360,0.0,4.0,78,0.00,,---,1.02,VWS V14.01,2013-07-07 20:17:00,
2013-07-07 15:22:00,77.6,70.2,29.83,North,360,0.0,4.0,78,0.00,,---,1.02,VWS V14.01,2013-07-07 20:22:00,
2013-07-07 15:27:00,77.4,70.4,29.83,North,360,0.0,2.0,79,0.00,,---,1.02,VWS V14.01,2013-07-07 20:27:00,
2013-07-07 15:32:00,77.4,70.8,29.83,NNE,19,0.0,2.0,80,0.00,,---,1.02,VWS V14.01,2013-07-07 20:32:00,
2013-07-07 15:37:00,77.8,70.4,29.83,West,267,0.0,4.0,78,0.00,,---,1.02,VWS V14.01,2013-07-07 20:37:00,
2013-07-07 15:42:00,77.8,70.8,29.83,NNW,343,0.0,3.0,79,0.00,,---,1.02,VWS V14.01,2013-07-07 20:42:00,
2013-07-07 15:47:00,77.8,70.4,29.82,West,279,0.0,2.0,78,0.00,,---,1.02,VWS V14.01,2013-07-07 20:47:00,
2013-07-07 15:52:00,77.8,70.0,29.83,WNW,283,1.0,3.0,77,0.00,,---,1.02,VWS V14.01,2013-07-07 20:52:00,
2013-07-07 15:57:00,77.7,70.3,29.82,ESE,111,0.0,5.0,78,0.00,,---,1.02,VWS V14.01,2013-07-07 20:57:00,
2013-07-07 16:02:00,77.8,70.8,29.82,ESE,115,0.0,3.0,79,0.00,,---,1.02,VWS V14.01,2013-07-07 21:02:00,
2013-07-07 16:12:00,78.3,70.1,29.82,East,95,1.0,5.0,76,0.00,,---,1.02,VWS V14.01,2013-07-07 21:12:00,
2013-07-07 16:17:00,78.0,70.2,29.82,NNE,13,0.0,4.0,77,0.00,,---,1.02,VWS V14.01,2013-07-07 21:17:00,
2013-07-07 16:27:00,78.7,71.3,29.82,North,11,0.0,2.0,78,0.00,,---,1.02,VWS V14.01,2013-07-07 21:27:00,
2013-07-07 16:32:00,78.2,70.4,29.82,East,84,0.0,5.0,77,0.00,,---,1.02,VWS V14.01,2013-07-07 21:32:00,
2013-07-07 16:37:00,78.0,70.6,29.82,ENE,77,0.0,3.0,78,0.00,,---,1.02,VWS V14.01,2013-07-07 21:37:00,
2013-07-07 16:42:00,78.4,71.0,29.82,ENE,71,2.0,3.0,78,0.00,,---,1.02,VWS V14.01,2013-07-07 21:42:00,
2013-07-07 16:47:00,78.5,70.3,29.82,North,360,0.0,4.0,76,0.00,,---,1.02,VWS V14.01,2013-07-07 21:47:00,
2013-07-07 16:52:00,78.6,70.8,29.82,ENE,77,0.0,3.0,77,0.00,,---,1.02,VWS V14.01,2013-07-07 21:52:00,
2013-07-07 16:57:00,78.7,71.3,29.82,SW,233,0.0,2.0,78,0.00,,---,1.02,VWS V14.01,2013-07-07 21:57:00,
2013-07-07 17:02:00,78.9,70.7,29.83,SW,236,0.0,1.0,76,0.00,,---,1.02,VWS V14.01,2013-07-07 22:02:00,
2013-07-07 17:07:00,78.7,70.5,29.83,NNE,14,1.0,4.0,76,0.00,,---,1.02,VWS V14.01,2013-07-07 22:07:00,
2013-07-07 17:12:00,78.2,70.8,29.83,WNW,288,0.0,2.0,78,0.00,,---,1.02,VWS V14.01,2013-07-07 22:12:00,
2013-07-07 17:17:00,77.9,69.7,29.83,North,355,0.0,3.0,76,0.00,,---,1.02,VWS V14.01,2013-07-07 22:17:00,
2013-07-07 17:22:00,77.3,68.8,29.83,SW,230,0.0,3.0,75,0.00,,---,1.02,VWS V14.01,2013-07-07 22:22:00,
2013-07-07 17:27:00,76.5,68.4,29.83,NNE,23,0.0,4.0,76,0.00,,---,1.02,VWS V14.01,2013-07-07 22:27:00,
2013-07-07 17:32:00,76.4,69.0,29.83,NNW,332,0.0,2.0,78,0.00,,---,1.02,VWS V14.01,2013-07-07 22:32:00,
2013-07-07 17:37:00,76.0,67.9,29.83,North,5,0.0,3.0,76,0.00,,---,1.02,VWS V14.01,2013-07-07 22:37:00,
2013-07-07 17:42:00,75.4,67.7,29.83,North,5,1.0,3.0,77,0.00,,---,1.02,VWS V14.01,2013-07-07 22:42:00,
2013-07-07 17:47:00,74.5,67.2,29.83,North,5,0.0,4.0,78,0.00,,---,1.02,VWS V14.01,2013-07-07 22:47:00,
2013-07-07 17:57:00,73.9,67.3,29.82,East,86,0.0,1.0,80,0.00,,---,1.02,VWS V14.01,2013-07-07 22:57:00,
2013-07-07 18:07:00,73.2,66.7,29.83,NNE,26,0.0,3.0,80,0.00,,---,1.02,VWS V14.01,2013-07-07 23:07:00,
2013-07-07 18:12:00,73.0,66.1,29.83,NNE,26,0.0,0.0,79,0.00,,---,1.02,VWS V14.01,2013-07-07 23:12:00,
2013-07-07 18:22:00,71.5,64.7,29.83,NNE,19,0.0,3.0,79,0.00,,---,1.02,VWS V14.01,2013-07-07 23:22:00,
2013-07-07 18:27:00,70.3,64.2,29.83,NNE,19,0.0,3.0,81,0.00,,---,1.02,VWS V14.01,2013-07-07 23:27:00,
2013-07-07 18:32:00,69.5,63.4,29.83,NNE,18,0.0,1.0,81,0.00,,---,1.02,VWS V14.01,2013-07-07 23:32:00,
2013-07-07 18:37:00,68.8,63.1,29.84,NNE,15,1.0,2.0,82,0.00,,---,1.02,VWS V14.01,2013-07-07 23:37:00,
2013-07-07 18:42:00,67.6,61.6,29.84,NNE,14,0.0,3.0,81,0.00,,---,1.02,VWS V14.01,2013-07-07 23:42:00,
2013-07-07 18:47:00,66.7,61.7,29.84,NW,306,0.0,1.0,84,0.00,,---,1.02,VWS V14.01,2013-07-07 23:47:00,
2013-07-07 18:52:00,66.1,61.1,29.84,NW,309,0.0,1.0,84,0.00,,---,1.02,VWS V14.01,2013-07-07 23:52:00,
2013-07-07 18:57:00,65.5,60.9,29.84,NW,309,0.0,0.0,85,0.00,,---,1.02,VWS V14.01,2013-07-07 23:57:00,
2013-07-07 19:02:00,65.2,60.2,29.85,NW,309,0.0,0.0,84,0.00,,---,1.02,VWS V14.01,2013-07-08 00:02:00,
2013-07-07 19:07:00,64.3,59.4,29.85,NW,309,0.0,2.0,84,0.00,,---,1.02,VWS V14.01,2013-07-08 00:07:00,
2013-07-07 19:12:00,63.9,59.6,29.84,NW,309,0.0,0.0,86,0.00,,---,1.02,VWS V14.01,2013-07-08 00:12:00,
2013-07-07 19:17:00,63.7,59.4,29.84,NW,309,0.0,1.0,86,0.00,,---,1.02,VWS V14.01,2013-07-08 00:17:00,
2013-07-07 19:22:00,63.5,59.6,29.85,NW,309,0.0,1.0,87,0.00,,---,1.02,VWS V14.01,2013-07-08 00:22:00,
2013-07-07 19:27:00,63.3,59.0,29.85,NW,309,0.0,0.0,86,0.00,,---,1.02,VWS V14.01,2013-07-08 00:27:00,
2013-07-07 19:32:00,62.8,58.6,29.85,NW,309,0.0,3.0,86,0.00,,---,1.02,VWS V14.01,2013-07-08 00:32:00,
2013-07-07 19:37:00,62.1,57.9,29.85,NW,309,0.0,0.0,86,0.00,,---,1.02,VWS V14.01,2013-07-08 00:37:00,
2013-07-07 19:42:00,61.3,57.4,29.85,NW,309,0.0,2.0,87,0.00,,---,1.02,VWS V14.01,2013-07-08 00:42:00,
2013-07-07 19:47:00,60.8,57.2,29.86,NW,309,0.0,2.0,88,0.00,,---,1.02,VWS V14.01,2013-07-08 00:47:00,
2013-07-07 19:52:00,60.4,56.8,29.85,NW,309,0.0,0.0,88,0.00,,---,1.02,VWS V14.01,2013-07-08 00:52:00,
2013-07-07 19:57:00,59.9,56.3,29.86,NW,309,0.0,0.0,88,0.00,,---,1.02,VWS V14.01,2013-07-08 00:57:00,
2013-07-07 20:02:00,59.5,56.0,29.86,NW,310,0.0,0.0,88,0.00,,---,1.02,VWS V14.01,2013-07-08 01:02:00,
2013-07-07 20:07:00,59.0,55.5,29.86,NW,310,0.0,1.0,88,0.00,,---,1.02,VWS V14.01,2013-07-08 01:07:00,
2013-07-07 20:12:00,58.4,54.9,29.87,NW,309,0.0,2.0,88,0.00,,---,1.02,VWS V14.01,2013-07-08 01:12:00,
2013-07-07 20:17:00,57.9,54.7,29.87,NW,309,0.0,2.0,89,0.00,,---,1.02,VWS V14.01,2013-07-08 01:17:00,
2013-07-07 20:27:00,57.4,54.8,29.87,NW,309,0.0,1.0,91,0.00,,---,1.02,VWS V14.01,2013-07-08 01:27:00,
2013-07-07 20:32:00,57.2,54.6,29.87,NW,310,0.0,0.0,91,0.00,,---,1.02,VWS V14.01,2013-07-08 01:32:00,
2013-07-07 20:37:00,56.9,54.3,29.87,NW,309,0.0,0.0,91,0.00,,---,1.02,VWS V14.01,2013-07-08 01:37:00,
2013-07-07 20:42:00,56.7,54.1,29.88,NW,309,0.0,0.0,91,0.00,,---,1.02,VWS V14.01,2013-07-08 01:42:00,
2013-07-07 20:47:00,56.5,54.2,29.88,NW,310,0.0,0.0,92,0.00,,---,1.02,VWS V14.01,2013-07-08 01:47:00,
2013-07-07 20:52:00,56.3,54.0,29.88,NW,309,0.0,0.0,92,0.00,,---,1.02,VWS V14.01,2013-07-08 01:52:00,
2013-07-07 20:57:00,56.1,53.8,29.88,NW,309,0.0,0.0,92,0.00,,---,1.02,VWS V14.01,2013-07-08 01:57:00,
2013-07-07 21:02:00,55.8,53.5,29.88,NW,309,0.0,1.0,92,0.00,,---,1.02,VWS V14.01,2013-07-08 02:02:00,
2013-07-07 21:12:00,55.6,53.3,29.88,NW,310,0.0,0.0,92,0.00,,---,1.02,VWS V14.01,2013-07-08 02:12:00,
2013-07-07 21:17:00,55.4,53.4,29.88,NW,309,0.0,1.0,93,0.00,,---,1.02,VWS V14.01,2013-07-08 02:17:00,
2013-07-07 21:27:00,55.0,53.0,29.88,NW,310,0.0,2.0,93,0.00,,---,1.02,VWS V14.01,2013-07-08 02:27:00,
2013-07-07 21:32:00,54.8,52.8,29.87,NW,309,0.0,1.0,93,0.00,,---,1.02,VWS V14.01,2013-07-08 02:32:00,
2013-07-07 21:37:00,54.8,52.8,29.87,NW,309,0.0,0.0,93,0.00,,---,1.02,VWS V14.01,2013-07-08 02:37:00,
2013-07-07 21:42:00,54.7,53.0,29.88,NW,310,0.0,0.0,94,0.00,,---,1.02,VWS V14.01,2013-07-08 02:42:00,
2013-07-07 21:47:00,54.5,52.5,29.89,NW,310,0.0,2.0,93,0.00,,---,1.02,VWS V14.01,2013-07-08 02:47:00,
2013-07-07 21:52:00,54.3,52.6,29.88,NW,310,0.0,3.0,94,0.00,,---,1.02,VWS V14.01,2013-07-08 02:52:00,
2013-07-07 22:02:00,54.2,52.5,29.87,NW,310,0.0,0.0,94,0.00,,---,1.02,VWS V14.01,2013-07-08 03:02:00,
2013-07-07 22:07:00,54.0,52.3,29.87,NW,310,0.0,0.0,94,0.00,,---,1.02,VWS V14.01,2013-07-08 03:07:00,
2013-07-07 22:17:00,53.8,52.1,29.89,NW,310,0.0,2.0,94,0.00,,---,1.02,VWS V14.01,2013-07-08 03:17:00,
2013-07-07 22:22:00,53.7,52.0,29.88,NW,310,0.0,0.0,94,0.00,,---,1.02,VWS V14.01,2013-07-08 03:22:00,
2013-07-07 22:27:00,53.5,51.8,29.88,NW,310,0.0,0.0,94,0.00,,---,1.02,VWS V14.01,2013-07-08 03:27:00,
2013-07-07 22:32:00,53.4,51.7,29.87,NW,310,0.0,0.0,94,0.00,,---,1.02,VWS V14.01,2013-07-08 03:32:00,
2013-07-07 22:37:00,53.3,51.9,29.88,NW,310,0.0,2.0,95,0.00,,---,1.02,VWS V14.01,2013-07-08 03:37:00,
2013-07-07 22:42:00,53.3,51.9,29.89,NW,310,0.0,2.0,95,0.00,,---,1.02,VWS V14.01,2013-07-08 03:42:00,
2013-07-07 22:52:00,53.2,51.8,29.89,NW,310,0.0,2.0,95,0.00,,---,1.02,VWS V14.01,2013-07-08 03:52:00,
2013-07-07 22:57:00,53.0,51.6,29.90,West,280,2.0,5.0,95,0.00,,---,1.02,VWS V14.01,2013-07-08 03:57:00,
2013-07-07 23:02:00,52.8,51.4,29.91,West,268,0.0,6.0,95,0.00,,---,1.02,VWS V14.01,2013-07-08 04:02:00,
2013-07-07 23:07:00,52.8,51.4,29.91,West,268,0.0,3.0,95,0.00,,---,1.02,VWS V14.01,2013-07-08 04:07:00,
2013-07-07 23:12:00,52.9,51.5,29.91,West,268,0.0,2.0,95,0.00,,---,1.02,VWS V14.01,2013-07-08 04:12:00,
2013-07-07 23:17:00,53.0,51.6,29.93,WSW,254,12.0,12.0,95,0.01,,---,1.03,VWS V14.01,2013-07-08 04:17:00,
2013-07-07 23:22:00,52.8,51.4,29.92,West,261,5.0,13.0,95,0.01,,---,1.03,VWS V14.01,2013-07-08 04:22:00,
2013-07-07 23:27:00,52.8,51.7,29.92,WNW,291,0.0,12.0,96,0.11,,---,1.13,VWS V14.01,2013-07-08 04:27:00,
2013-07-07 23:32:00,52.8,51.7,29.91,East,84,0.0,4.0,96,0.31,,---,1.33,VWS V14.01,2013-07-08 04:32:00,
2013-07-07 23:37:00,52.8,51.7,29.92,WNW,296,0.0,11.0,96,0.45,,---,1.47,VWS V14.01,2013-07-08 04:37:00,
2013-07-07 23:42:00,52.8,51.7,29.90,WNW,302,0.0,3.0,96,0.55,,---,1.57,VWS V14.01,2013-07-08 04:42:00,
2013-07-07 23:47:00,52.7,51.6,29.90,North,360,0.0,2.0,96,0.60,,---,1.62,VWS V14.01,2013-07-08 04:47:00,
2013-07-07 23:52:00,52.6,51.5,29.90,North,360,0.0,0.0,96,0.61,,---,1.63,VWS V14.01,2013-07-08 04:52:00,
2013-07-07 23:57:00,52.7,51.6,29.90,North,5,0.0,1.0,96,0.61,,---,1.63,VWS V14.01,2013-07-08 04:57:00,